W5SDC Weather Reports


Display with metric or nautical units.
time (UTC)temp
F
wind
direction
speed
MPH
gust
MPH
rain 1hr
in
rain 24hr
in
rain mn
in
humidity
%
barometer
mb
20260510112515 68 190 3.0 6.0 0.00 0.00 0.00 98 1012.6
20260510112042 68 203 3.0 5.0 0.00 0.00 0.00 98 1012.6
20260510111529 68 180 3.0 5.0 0.00 0.00 0.00 98 1012.6
20260510111017 68 185 3.0 4.0 0.00 0.00 0.00 98 1012.7
20260510110524 68 189 2.0 3.0 0.00 0.00 0.00 97 1012.7
20260510110030 68 167 2.0 3.0 0.00 0.00 0.00 97 1012.4
20260510105519 68 213 2.0 5.0 0.00 0.00 0.00 97 1012.4
20260510105025 69 192 2.0 3.0 0.00 0.00 0.00 97 1012.3
20260510104532 69 216 1.0 3.0 0.00 0.00 0.00 96 1012.2
20260510104020 69 196 3.0 4.0 0.00 0.00 0.00 96 1012.2
20260510103527 69 201 2.0 3.0 0.00 0.00 0.00 96 1012.2
20260510103033 69 185 3.0 5.0 0.00 0.00 0.00 96 1012.2
20260510102522 69 203 2.0 3.0 0.00 0.00 0.00 96 1012.2
20260510102028 69 206 2.0 3.0 0.00 0.00 0.00 95 1012.2
20260510101517 70 220 1.0 3.0 0.00 0.00 0.00 94 1012.1
20260510101023 70 194 2.0 3.0 0.00 0.00 0.00 94 1011.8
20260510100530 70 181 3.0 6.0 0.00 0.00 0.00 93 1011.8
20260510100018 70 203 4.0 6.0 0.00 0.00 0.00 93 1011.8
20260510095525 70 207 4.0 7.0 0.00 0.00 0.00 93 1011.8
20260510095032 70 210 3.0 6.0 0.00 0.00 0.00 93 1011.8
20260510094520 71 175 3.0 4.0 0.00 0.00 0.00 93 1011.8
20260510094027 71 203 4.0 5.0 0.00 0.00 0.00 93 1011.8
20260510093533 71 195 4.0 6.0 0.00 0.00 0.00 93 1011.8
20260510093041 71 223 3.0 4.0 0.00 0.00 0.00 92 1011.8
20260510092528 71 201 4.0 7.0 0.00 0.00 0.00 92 1011.8
20260510092016 71 213 4.0 6.0 0.00 0.00 0.00 92 1011.8
20260510091523 71 198 3.0 6.0 0.00 0.00 0.00 92 1011.8
20260510091030 71 210 4.0 6.0 0.00 0.00 0.00 92 1011.8
20260510090518 71 179 4.0 6.0 0.00 0.00 0.00 91 1011.8
20260510090024 71 202 5.0 6.0 0.00 0.00 0.00 91 1011.7
20260510085551 71 177 5.0 7.0 0.00 0.00 0.00 91 1011.7
20260510085020 71 198 4.0 6.0 0.00 0.00 0.00 91 1011.8
20260510084526 71 163 4.0 7.0 0.00 0.00 0.00 90 1011.9
20260510084033 71 161 4.0 6.0 0.00 0.00 0.00 90 1011.9
20260510083521 71 174 4.0 5.0 0.00 0.00 0.00 90 1012.0
20260510083028 72 177 4.0 7.0 0.00 0.00 0.00 89 1012.0
20260510082516 72 194 5.0 9.0 0.00 0.00 0.00 89 1012.0
20260510082023 72 151 5.0 7.0 0.00 0.00 0.00 88 1012.0
20260510081529 72 197 5.0 8.0 0.00 0.00 0.00 88 1012.0
20260510081017 72 156 5.0 6.0 0.00 0.00 0.00 88 1012.0
20260510080524 72 147 6.0 8.0 0.00 0.00 0.00 87 1012.0
20260510080031 73 196 6.0 7.0 0.00 0.00 0.00 87 1012.4
20260510075519 73 196 6.0 9.0 0.00 0.00 0.00 86 1012.4
20260510075046 73 188 6.0 8.0 0.00 0.00 0.00 86 1012.4
20260510074532 73 152 5.0 6.0 0.00 0.00 0.00 86 1012.4
20260510074020 73 167 6.0 7.0 0.00 0.00 0.00 86 1012.4
20260510073527 73 157 5.0 7.0 0.00 0.00 0.00 86 1012.4
20260510073015 73 149 5.0 9.0 0.00 0.00 0.00 85 1012.4
20260510072522 73 163 5.0 6.0 0.00 0.00 0.00 85 1012.2
20260510072029 73 158 6.0 9.0 0.00 0.00 0.00 84 1012.2
20260510071517 73 148 6.0 8.0 0.00 0.00 0.00 84 1012.2
20260510071023 73 186 7.0 9.0 0.00 0.00 0.00 84 1012.2
20260510070530 74 174 6.0 8.0 0.00 0.00 0.00 83 1012.2
20260510070018 74 169 6.0 9.0 0.00 0.00 0.00 83 1012.2
20260510065525 74 160 7.0 9.0 0.00 0.00 0.00 82 1012.2
20260510065032 74 152 6.0 9.0 0.00 0.00 0.00 82 1012.2
20260510064520 74 156 6.0 8.0 0.00 0.00 0.00 82 1012.2
20260510064027 74 167 5.0 7.0 0.00 0.00 0.00 81 1012.2
20260510063533 74 161 5.0 7.0 0.00 0.00 0.00 81 1012.2
20260510063022 75 165 5.0 7.0 0.00 0.00 0.00 80 1012.2
20260510062528 75 164 5.0 8.0 0.00 0.00 0.00 80 1012.2
20260510062016 75 179 6.0 9.0 0.00 0.00 0.00 80 1012.2
20260510061523 75 170 6.0 9.0 0.00 0.00 0.00 80 1012.2
20260510061029 75 188 5.0 7.0 0.00 0.00 0.00 81 1012.2
20260510060518 75 140 5.0 7.0 0.00 0.00 0.00 81 1012.2
20260510060025 75 176 5.0 8.0 0.00 0.00 0.00 81 1012.0
20260510055019 75 164 5.0 7.0 0.00 0.00 0.00 82 1012.0
20260510054526 75 164 4.0 6.0 0.00 0.00 0.00 82 1012.0
20260510054033 75 170 5.0 7.0 0.00 0.00 0.00 83 1012.0
20260510053521 75 160 5.0 8.0 0.00 0.00 0.00 84 1012.0
20260510053027 75 156 4.0 6.0 0.00 0.00 0.00 85 1012.0
20260510052516 75 166 4.0 5.0 0.00 0.00 0.00 85 1012.1
20260510052022 76 176 4.0 6.0 0.00 0.00 0.00 85 1012.2
20260510051529 76 142 5.0 8.0 0.00 0.00 0.00 85 1012.2
20260510051017 76 132 3.0 5.0 0.00 0.00 0.00 84 1012.2
20260510050544 76 138 3.0 4.0 0.00 0.00 0.00 82 1012.2
20260510050030 76 139 3.0 5.0 0.00 0.00 0.00 82 1012.0
20260510045519 76 149 4.0 6.0 0.00 0.00 0.00 83 1012.0
20260510045026 76 148 3.0 5.0 0.00 0.00 0.00 85 1012.0
20260510044532 76 159 3.0 4.0 0.00 0.00 0.00 86 1012.0
20260510044020 76 138 3.0 5.0 0.00 0.00 0.00 86 1012.0
20260510043527 76 176 1.0 3.0 0.00 0.00 0.00 86 1012.0
20260510043015 76 164 2.0 3.0 0.00 0.00 0.00 86 1012.0
20260510042542 76 203 1.0 3.0 0.00 0.00 0.00 86 1011.9
20260510042029 77 152 1.0 3.0 0.00 0.00 0.00 85 1011.9
20260510041537 77 153 1.0 3.0 0.00 0.00 0.00 85 1012.0
20260510041024 77 158 2.0 2.0 0.00 0.00 0.00 85 1012.0
20260510040530 77 159 2.0 4.0 0.00 0.00 0.00 85 1012.0
20260510040018 77 163 3.0 4.0 0.00 0.00 0.00 85 1011.8
20260510035525 78 161 3.0 5.0 0.00 0.00 0.00 85 1011.8
20260510035031 78 161 3.0 5.0 0.00 0.00 0.00 85 1011.8
20260510034520 78 187 3.0 4.0 0.00 0.00 0.00 85 1011.8
20260510034026 78 169 2.0 3.0 0.00 0.00 0.00 84 1011.8
20260510033553 78 169 2.0 3.0 0.00 0.00 0.00 84 1011.7
20260510033043 78 170 3.0 4.0 0.00 0.00 0.00 83 1011.7
20260510032528 79 153 3.0 5.0 0.00 0.00 0.00 83 1011.7
20260510032016 79 146 3.0 5.0 0.00 0.00 0.00 83 1011.7
20260510031523 79 159 3.0 4.0 0.00 0.00 0.00 82 1011.5
20260510031029 79 148 3.0 4.0 0.00 0.00 0.00 81 1011.4
20260510030518 79 155 3.0 5.0 0.00 0.00 0.00 81 1011.4
20260510030024 79 149 4.0 5.0 0.00 0.00 0.00 80 1011.3
20260510025531 79 168 3.0 4.0 0.00 0.00 0.00 79 1011.3
20260510025019 80 161 4.0 6.0 0.00 0.00 0.00 79 1011.2
20260510024526 80 151 4.0 7.0 0.00 0.00 0.00 78 1011.1
20260510024032 79 154 4.0 6.0 0.00 0.00 0.00 77 1011.1
20260510023521 79 172 2.0 4.0 0.00 0.00 0.00 77 1010.9
20260510023028 80 167 2.0 4.0 0.00 0.00 0.00 76 1010.9
20260510022516 80 153 2.0 3.0 0.00 0.00 0.00 76 1010.7
20260510022203 80 174 1.0 3.0 0.00 0.00 0.00 76 1010.7
20260510021529 80 180 0.0 1.0 0.00 0.00 0.00 75 1010.6
20260510021017 81 201 1.0 3.0 0.00 0.00 0.00 74 1010.5
20260510020523 81 167 3.0 4.0 0.00 0.00 0.00 73 1010.5
20260510020031 81 155 3.0 4.0 0.00 0.00 0.00 73 1010.3
20260510015519 81 141 3.0 5.0 0.00 0.00 0.00 72 1010.3
20260510015025 82 157 3.0 5.0 0.00 0.00 0.00 72 1010.3
20260510014532 82 157 4.0 6.0 0.00 0.00 0.00 71 1010.3
20260510014020 82 167 4.0 6.0 0.00 0.00 0.00 71 1010.3
20260510013527 82 166 4.0 5.0 0.00 0.00 0.00 70 1010.1
20260510013033 83 138 4.0 5.0 0.00 0.00 0.00 69 1010.1
20260510012602 83 137 4.0 5.0 0.00 0.00 0.00 68 1010.1
20260510012028 83 139 4.0 7.0 0.00 0.00 0.00 68 1010.1
20260510011517 84 146 4.0 6.0 0.00 0.00 0.00 67 1010.1
20260510011023 84 136 4.0 7.0 0.00 0.00 0.00 66 1010.0
20260510010550 84 128 5.0 8.0 0.00 0.00 0.00 65 1010.0
20260510010058 85 138 5.0 7.0 0.00 0.00 0.00 64 1010.0
20260510005645 85 148 6.0 8.0 0.00 0.00 0.00 63 1010.0
20260510005031 85 139 5.0 8.0 0.00 0.00 0.00 62 1009.9
20260510004520 86 138 5.0 7.0 0.00 0.00 0.00 61 1009.8
20260510004026 86 128 5.0 7.0 0.00 0.00 0.00 61 1009.8
20260510003533 86 133 5.0 7.0 0.00 0.00 0.00 60 1009.7
20260510003041 87 138 5.0 6.0 0.00 0.00 0.00 59 1009.7
20260510002527 87 156 5.0 6.0 0.00 0.00 0.00 59 1009.6
20260510002036 87 155 5.0 6.0 0.00 0.00 0.00 58 1009.6
20260510001543 88 126 6.0 8.0 0.00 0.00 0.00 57 1009.5
20260510001029 88 136 5.0 7.0 0.00 0.00 0.00 57 1009.5
20260510000517 89 116 4.0 6.0 0.00 0.00 0.00 56 1009.5
20260510000024 89 123 4.0 6.0 0.00 0.00 0.00 55 1009.3
20260509235530 89 130 4.0 6.0 0.00 0.00 0.00 55 1009.3
20260509235039 89 143 5.0 7.0 0.00 0.00 0.00 55 1009.3
20260509234525 89 147 6.0 8.0 0.00 0.00 0.00 55 1009.3
20260509234032 89 127 5.0 7.0 0.00 0.00 0.00 54 1009.3
20260509233540 90 148 6.0 7.0 0.00 0.00 0.00 53 1009.3
20260509233047 90 155 5.0 7.0 0.00 0.00 0.00 53 1009.3
20260509232515 90 119 5.0 6.0 0.00 0.00 0.00 53 1009.2
20260509232022 90 144 6.0 8.0 0.00 0.00 0.00 52 1009.1
20260509231528 91 160 5.0 8.0 0.00 0.00 0.00 52 1009.1
20260509231017 91 136 5.0 7.0 0.00 0.00 0.00 51 1009.1
20260509230543 91 140 5.0 6.0 0.00 0.00 0.00 51 1009.1
20260509230030 91 135 5.0 6.0 0.00 0.00 0.00 50 1009.1
20260509225538 91 119 5.0 7.0 0.00 0.00 0.00 51 1009.1
20260509225025 90 137 5.0 6.0 0.00 0.00 0.00 50 1009.3
20260509224532 90 123 5.0 6.0 0.00 0.00 0.00 51 1009.3
20260509224020 91 109 5.0 7.0 0.00 0.00 0.00 52 1009.3
20260509223526 91 132 5.0 8.0 0.00 0.00 0.00 53 1009.1
20260509223033 92 176 3.0 6.0 0.00 0.00 0.00 55 1009.1
20260509222521 92 289 1.0 3.0 0.00 0.00 0.00 55 1009.2
20260509222028 91 109 4.0 6.0 0.00 0.00 0.00 56 1009.3
20260509221536 91 136 3.0 5.0 0.00 0.00 0.00 55 1009.3
20260509221023 92 259 2.0 3.0 0.00 0.00 0.00 54 1009.3
20260509220529 91 356 3.0 4.0 0.00 0.00 0.00 56 1009.3
20260509220017 91 302 1.0 5.0 0.00 0.00 0.00 56 1009.5
20260509215544 91 144 3.0 5.0 0.00 0.00 0.00 56 1009.5
20260509215031 91 26 3.0 4.0 0.00 0.00 0.00 56 1009.5
20260509214519 91 343 3.0 5.0 0.00 0.00 0.00 56 1009.6
20260509214026 91 193 2.0 4.0 0.00 0.00 0.00 57 1009.6
20260509213532 90 86 3.0 4.0 0.00 0.00 0.00 57 1009.7
20260509213021 90 60 3.0 5.0 0.00 0.00 0.00 58 1009.7
20260509212627 89 140 4.0 5.0 0.00 0.00 0.00 59 1009.8
20260509212036 90 136 5.0 6.0 0.00 0.00 0.00 58 1009.8
20260509211542 90 144 4.0 6.0 0.00 0.00 0.00 57 1009.8
20260509211029 89 24 5.0 8.0 0.00 0.00 0.00 57 1009.8
20260509210517 89 36 6.0 9.0 0.00 0.00 0.00 56 1009.8
20260509210024 90 103 6.0 8.0 0.00 0.00 0.00 56 1010.2
20260509205530 90 73 5.0 7.0 0.00 0.00 0.00 56 1010.2
20260509205018 89 117 4.0 7.0 0.00 0.00 0.00 56 1010.2
20260509204525 89 131 4.0 6.0 0.00 0.00 0.00 57 1010.3
20260509204031 89 137 6.0 9.0 0.00 0.00 0.00 59 1010.3
20260509203520 89 121 5.0 7.0 0.00 0.00 0.00 60 1010.5
20260509203026 88 93 4.0 7.0 0.00 0.00 0.00 58 1010.5
20260509202533 88 115 5.0 7.0 0.00 0.00 0.00 55 1010.7
20260509202041 85 144 7.0 9.0 0.00 0.00 0.00 57 1010.8
20260509201528 85 128 8.0 10.0 0.00 0.00 0.00 58 1010.8
20260509201016 87 146 6.0 13.0 0.00 0.00 0.00 63 1010.9
20260509200543 89 356 6.0 8.0 0.00 0.00 0.00 64 1010.9
20260509200030 89 20 6.0 8.0 0.00 0.00 0.00 63 1010.8
20260509195518 88 344 4.0 5.0 0.00 0.00 0.00 66 1010.8
20260509195024 89 4 4.0 7.0 0.00 0.00 0.00 64 1010.8
20260509194551 91 46 5.0 9.0 0.00 0.00 0.00 61 1010.8
20260509194040 90 67 3.0 5.0 0.00 0.00 0.00 59 1010.8
20260509193526 90 283 3.0 5.0 0.00 0.00 0.00 60 1010.9
20260509193033 89 309 4.0 8.0 0.00 0.00 0.00 60 1010.9
20260509192521 89 297 2.0 4.0 0.00 0.00 0.00 61 1010.9
20260509192027 88 313 6.0 9.0 0.00 0.00 0.00 64 1010.9
20260509191516 87 321 5.0 8.0 0.00 0.00 0.00 66 1010.9
20260509191023 89 337 6.0 7.0 0.00 0.00 0.00 65 1011.0
20260509190529 90 325 5.0 8.0 0.00 0.00 0.00 65 1011.0
20260509190017 91 284 4.0 7.0 0.00 0.00 0.00 60 1011.5
20260509185525 90 316 6.0 9.0 0.00 0.00 0.00 60 1011.5
20260509185030 89 305 2.0 5.0 0.00 0.00 0.00 64 1011.5
20260509184519 88 311 4.0 5.0 0.00 0.00 0.00 64 1011.5
20260509184025 90 258 3.0 5.0 0.00 0.00 0.00 62 1011.6
20260509183532 90 272 4.0 7.0 0.00 0.00 0.00 62 1011.7
20260509183020 88 184 1.0 3.0 0.00 0.00 0.00 65 1011.7
20260509182627 88 287 2.0 5.0 0.00 0.00 0.00 64 1011.7
20260509182015 88 277 3.0 4.0 0.00 0.00 0.00 64 1011.7
20260509181522 88 256 4.0 5.0 0.00 0.00 0.00 64 1011.9
20260509181028 87 210 3.0 5.0 0.00 0.00 0.00 66 1012.2
20260509180537 89 240 3.0 6.0 0.00 0.00 0.00 64 1012.2
20260509180023 90 301 3.0 7.0 0.00 0.00 0.00 64 1011.8
20260509175550 90 243 3.0 5.0 0.00 0.00 0.00 64 1011.8
20260509175018 89 301 3.0 9.0 0.00 0.00 0.00 67 1012.0
20260509174526 87 243 4.0 7.0 0.00 0.00 0.00 69 1012.0
20260509174051 86 289 2.0 6.0 0.00 0.00 0.00 70 1012.1
20260509173540 85 214 3.0 6.0 0.00 0.00 0.00 71 1012.4
20260509173026 85 211 3.0 5.0 0.00 0.00 0.00 72 1012.4
20260509172533 85 158 3.0 6.0 0.00 0.00 0.00 71 1012.6
20260509172021 87 226 2.0 4.0 0.00 0.00 0.00 71 1012.7
20260509171528 89 205 2.0 4.0 0.00 0.00 0.00 69 1012.7
20260509171016 87 270 2.0 5.0 0.00 0.00 0.00 71 1012.7
20260509170523 86 211 3.0 7.0 0.00 0.00 0.00 73 1012.7
20260509170050 86 204 4.0 6.0 0.00 0.00 0.00 75 1012.6
20260509165517 86 206 5.0 8.0 0.00 0.00 0.00 74 1012.6
20260509165024 87 265 4.0 7.0 0.00 0.00 0.00 75 1012.7
20260509164531 86 232 4.0 7.0 0.00 0.00 0.00 74 1012.9
20260509164059 85 251 3.0 6.0 0.00 0.00 0.00 77 1012.9
20260509163526 84 224 4.0 6.0 0.00 0.00 0.00 79 1012.9
20260509163033 84 233 4.0 7.0 0.00 0.00 0.00 79 1012.9
20260509162521 83 222 4.0 5.0 0.00 0.00 0.00 80 1012.7
20260509162027 83 214 5.0 7.0 0.00 0.00 0.00 82 1012.7
20260509161516 81 214 6.0 10.0 0.00 0.00 0.00 84 1012.7
20260509161022 81 187 8.0 11.0 0.00 0.00 0.00 84 1012.7
20260509160529 80 219 6.0 8.0 0.00 0.00 0.00 86 1012.7
20260509160018 78 199 8.0 10.0 0.00 0.00 0.00 88 1012.7
20260509155524 79 227 7.0 13.0 0.00 0.00 0.00 87 1012.7
20260509155051 79 216 6.0 9.0 0.00 0.00 0.00 87 1012.6
20260509154518 80 188 8.0 12.0 0.00 0.00 0.00 85 1012.6
20260509154025 81 198 7.0 10.0 0.00 0.00 0.00 85 1012.5
20260509153532 80 187 5.0 8.0 0.00 0.00 0.00 86 1012.4
20260509153020 80 209 7.0 10.0 0.00 0.00 0.00 86 1012.4
20260509152527 82 201 6.0 10.0 0.00 0.00 0.00 84 1012.1
20260509152033 83 196 5.0 8.0 0.00 0.00 0.00 82 1012.0
20260509151522 85 149 4.0 6.0 0.00 0.00 0.00 78 1012.0
20260509151028 87 229 6.0 10.0 0.00 0.00 0.00 75 1011.9
20260509150517 87 210 5.0 7.0 0.00 0.00 0.00 76 1011.9
20260509150023 87 212 3.0 5.0 0.00 0.00 0.00 75 1012.0
20260509145530 86 210 3.0 6.0 0.00 0.00 0.00 76 1012.0
20260509145018 87 192 4.0 8.0 0.00 0.00 0.00 76 1012.0
20260509144545 85 225 3.0 5.0 0.00 0.00 0.00 77 1012.0
20260509144111 86 216 5.0 7.0 0.00 0.00 0.00 77 1012.0
20260509143519 86 211 3.0 4.0 0.00 0.00 0.00 76 1011.8
20260509143026 87 207 2.0 4.0 0.00 0.00 0.00 76 1011.8
20260509142533 86 261 2.0 3.0 0.00 0.00 0.00 77 1011.7
20260509142021 84 188 3.0 5.0 0.00 0.00 0.00 78 1011.7
20260509141528 84 178 2.0 4.0 0.00 0.00 0.00 80 1011.5
20260509141016 82 186 3.0 5.0 0.00 0.00 0.00 83 1011.1
20260509140543 82 201 4.0 7.0 0.00 0.00 0.00 84 1011.1
20260509140029 81 197 3.0 5.0 0.00 0.00 0.00 86 1011.3
20260509135538 80 182 4.0 7.0 0.00 0.00 0.00 87 1011.3
20260509135024 80 205 4.0 6.0 0.00 0.00 0.00 88 1011.3
20260509134530 79 146 4.0 6.0 0.00 0.00 0.00 90 1011.2
20260509134019 78 180 4.0 8.0 0.00 0.00 0.00 90 1011.2
20260509133526 77 181 4.0 5.0 0.00 0.00 0.00 92 1011.4
20260509133032 76 183 4.0 7.0 0.00 0.00 0.00 94 1011.4
20260509132520 76 165 5.0 8.0 0.00 0.00 0.00 96 1011.5
20260509132027 75 210 6.0 10.0 0.00 0.00 0.00 97 1011.5
20260509131515 75 169 5.0 7.0 0.00 0.00 0.00 97 1011.5
20260509131042 74 170 6.0 9.0 0.00 0.00 0.00 99 1011.4
20260509130528 74 184 6.0 8.0 0.00 0.00 0.00 99 1011.4
20260509130037 74 158 5.0 7.0 0.00 0.00 0.00 99 1011.9
20260509125523 73 186 3.0 5.0 0.00 0.00 0.00 99 1011.9
20260509125030 73 187 2.0 3.0 0.00 0.00 0.00 99 1011.9
20260509124558 72 201 1.0 2.0 0.00 0.00 0.00 99 1011.8
20260509124045 72 223 1.0 3.0 0.00 0.00 0.00 99 1011.9
20260509123531 72 270 0.0 1.0 0.00 0.00 0.00 99 1011.9
20260509123019 71 283 2.0 4.0 0.00 0.00 0.00 99 1011.9
20260509122527 71 284 3.0 4.0 0.00 0.00 0.00 99 1011.8
20260509122033 71 268 2.0 3.0 0.00 0.00 0.00 99 1011.7
20260509121521 71 255 0.0 2.0 0.00 0.00 0.00 99 1011.9
20260509121028 71 301 1.0 2.0 0.00 0.00 0.00 99 1012.2
20260509120516 71 307 2.0 3.0 0.00 0.00 0.00 99 1012.2
20260509120023 71 334 2.0 4.0 0.00 0.00 0.00 99 1012.2
20260509115529 71 348 2.0 4.0 0.00 0.00 0.00 99 1012.2
20260509115018 71 293 0.0 2.0 0.00 0.00 0.00 99 1012.2
20260509114525 71 336 2.0 3.0 0.00 0.00 0.00 99 1012.2
20260509114031 71 34 1.0 3.0 0.00 0.00 0.00 99 1012.3
20260509113519 71 0.0 0.0 0.00 0.00 0.00 99 1012.4
20260509113026 71 203 1.0 2.0 0.00 0.00 0.00 99 1012.4